Location: Highland Meadows Observing Site
(48.4428°N, 114.5461°W)
Time: 23:14:43
(UTC-06:00)

Gurwin Techsat 1B - Visible Passes

Search period start: 28 March 2017 00:00
Search period end: 07 April 2017 00:00
Orbit: 812 x 813 km, 98.6° (Epoch: 27 March)

Date Brightness Start Highest point End Pass type
(mag) Time Alt. Az. Time Alt. Az. Time Alt. Az.
28 Mar 9.7 03:23:24 10° NNE 03:27:16 42° NE 03:27:16 42° NE visible
28 Mar 9.7 05:03:51 10° N 05:08:17 27° WNW 05:08:29 27° WNW visible
29 Mar 10.2 03:00:50 10° NNE 03:04:18 30° ENE 03:04:18 30° ENE visible
29 Mar 9.3 04:40:44 10° N 04:45:31 39° WNW 04:45:31 39° WNW visible
30 Mar 10.7 02:38:31 10° NE 02:41:20 20° ENE 02:41:20 20° ENE visible
30 Mar 8.8 04:17:44 10° N 04:22:33 57° NW 04:22:33 57° NW visible
30 Mar 10.7 06:00:15 10° NNW 06:01:52 11° NW 06:03:30 10° WNW visible
31 Mar 11.1 02:16:41 10° NE 02:18:22 14° ENE 02:18:22 14° ENE visible
31 Mar 8.8 03:54:52 10° NNE 03:59:35 70° N 03:59:35 70° N visible
31 Mar 10.3 05:36:13 10° NNW 05:39:27 17° NW 05:40:48 15° WNW visible
01 Apr 9.2 03:32:06 10° NNE 03:36:37 55° ENE 03:36:37 55° ENE visible
01 Apr 9.9 05:12:47 10° N 05:16:56 24° WNW 05:17:50 23° WNW visible
02 Apr 9.8 03:09:28 10° NNE 03:13:39 37° ENE 03:13:39 37° ENE visible
02 Apr 9.4 04:49:36 10° N 04:54:22 34° WNW 04:54:52 33° WNW visible
03 Apr 10.3 02:47:03 10° NE 02:50:40 25° ENE 02:50:40 25° ENE visible
03 Apr 8.9 04:26:33 10° N 04:31:42 50° WNW 04:31:53 50° WNW visible
04 Apr 10.8 02:24:58 10° NE 02:27:42 17° E 02:27:42 17° E visible
04 Apr 8.5 04:03:38 10° NNE 04:08:55 76° WNW 04:08:55 76° WNW visible
04 Apr 10.5 05:45:19 10° NNW 05:48:04 14° NW 05:50:08 12° WNW visible
05 Apr 11.2 02:04:03 10° ENE 02:04:44 11° ENE 02:04:44 11° ENE visible
05 Apr 8.7 03:40:49 10° NNE 03:45:57 71° E 03:45:57 71° E visible
05 Apr 10.1 05:21:44 10° NNW 05:25:35 21° WNW 05:27:10 18° W visible
06 Apr 9.3 03:18:09 10° NNE 03:22:59 46° E 03:22:59 46° E visible
06 Apr 9.6 04:58:29 10° N 05:03:02 29° WNW 05:04:12 27° W visible
